Pella, IA

1:32 PM CST on February 19, 2017 (GMT -0600)
Pella Municipal

Weather History for KPEA - February, 2014

Change the Weather History Date:

Saturday, February 1, 2014

  Actual Average (KOXV) Record (KOXV)
Temperature  
Mean Temperature 18 °F -  
Max Temperature 26 °F 33 °F 58 °F (1987)
Min Temperature 11 °F 13 °F -14 °F (1951)
Degree Days  
Heating Degree Days 46    
Moisture  
Dew Point 13 °F    
Average Humidity 82    
Maximum Humidity 90    
Minimum Humidity 71    
Precipitation  
Precipitation 0.00 in - - ()
Sea Level Pressure  
Sea Level Pressure 30.04 in    
Wind  
Wind Speed 4 mph (NNW)    
Max Wind Speed 15 mph    
Max Gust Speed 22 mph    
Visibility 8 miles    
Events Snow    
Averages and records for this station are not official NWS values.
T = Trace of Precipitation, MM = Missing Value Source: NWS Daily Summary

Daily Weather History Graph

Daily Weather History Graph

Search for Another Location

Airport or City:

Trip Planner

Search our weather history database for the weather conditions in past years. The results will help you decide how hot, cold, wet, or windy it might be!

Date:

Astronomy

Feb. 01, 2014 Rise Set
Actual Time 7:23 AM CST 5:28 PM CST
Civil Twilight 6:53 AM CST 5:57 PM CST
Nautical Twilight 6:20 AM CST 6:30 PM CST
Astronomical Twilight 5:48 AM CST 7:02 PM CST
Moon 8:11 AM CST (2/1) 8:06 PM CST (2/1)
Length of Visible Light 11h 03m
Length of Day
10h 04m
Waxing Crescent, 5% of the Moon is Illuminated
Feb 1
Waxing Crescent
Feb 6
First Quarter
Feb 14
Full
Feb 22
Last Quarter
Mar 1
New

Hourly Weather History & Observations

Time (CST) Temp. Windchill Dew Point Humidity Pressure Visibility Wind Dir Wind Speed Gust Speed Precip Events Conditions
12:15 AM 14.4 °F - 6.4 °F 71% 30.02 in 10.0 mi Calm Calm - N/A   Mostly Cloudy
12:35 AM 14.7 °F - 6.8 °F 71% 30.03 in 10.0 mi Calm Calm - N/A   Mostly Cloudy
12:55 AM 14.7 °F - 6.8 °F 71% 30.01 in 10.0 mi Calm Calm - N/A   Mostly Cloudy
1:15 AM 14.7 °F - 7.9 °F 74% 29.99 in 2.5 mi Calm Calm - N/A Snow Light Snow
1:35 AM 14.5 °F 7.1 °F 9.0 °F 79% 29.98 in 2.5 mi NNE 4.6 mph - N/A Snow Light Snow
1:55 AM 14.0 °F - 9.3 °F 82% 29.97 in 2.0 mi Calm Calm - N/A Snow Light Snow
2:15 AM 13.6 °F - 10.0 °F 86% 29.98 in 1.0 mi Calm Calm - N/A Snow Snow
2:35 AM 13.6 °F - 10.4 °F 87% 29.98 in 1.2 mi Calm Calm - N/A Snow Light Snow
2:55 AM 13.5 °F 4.4 °F 10.8 °F 89% 29.97 in 1.2 mi NNE 5.8 mph - N/A Snow Light Snow
3:15 AM 13.5 °F - 10.8 °F 89% 29.97 in 1.0 mi Calm Calm - N/A Snow Snow
3:35 AM 13.3 °F 5.6 °F 10.6 °F 89% 29.96 in 1.2 mi NNE 4.6 mph - N/A Snow Light Snow
3:55 AM 13.1 °F - 10.4 °F 89% 29.95 in 2.5 mi Calm Calm - N/A Snow Light Snow
4:15 AM 13.1 °F - 10.4 °F 89% 29.95 in 2.0 mi Calm Calm - N/A Snow Light Snow
4:35 AM 13.1 °F - 10.4 °F 89% 29.96 in 2.0 mi Calm Calm - N/A Snow Light Snow
4:55 AM 13.1 °F - 10.4 °F 89% 29.95 in 4.0 mi Calm Calm - N/A Snow Light Snow
5:15 AM 13.5 °F - 10.4 °F 88% 29.95 in 2.5 mi Calm Calm - N/A Snow Light Snow
5:35 AM 13.5 °F - 10.6 °F 88% 29.96 in 1.2 mi Calm Calm - N/A Snow Light Snow
5:55 AM 13.6 °F - 10.9 °F 89% 29.97 in 3.0 mi Calm Calm - N/A Snow Light Snow
6:15 AM 13.8 °F 8.0 °F 11.1 °F 89% 29.96 in 4.0 mi North 3.5 mph - N/A Snow Light Snow
6:35 AM 13.8 °F - 11.1 °F 89% 29.94 in 1.5 mi Calm Calm - N/A Snow Light Snow
6:55 AM 13.8 °F - 11.3 °F 90% 29.94 in 1.2 mi Calm Calm - N/A Snow Light Snow
7:15 AM 14.0 °F 8.2 °F 11.3 °F 89% 29.93 in 3.0 mi NE 3.5 mph - N/A Snow Light Snow
7:35 AM 14.2 °F - 11.5 °F 89% 29.94 in 3.0 mi Calm Calm - N/A Snow Light Snow
7:55 AM 14.5 °F - 11.8 °F 89% 29.95 in 4.0 mi Calm Calm - N/A Snow Light Snow
8:15 AM 14.9 °F - 12.2 °F 89% 29.96 in 5.0 mi Calm Calm - N/A Snow Light Snow
8:35 AM 15.3 °F - 12.2 °F 88% 29.97 in 10.0 mi Calm Calm - N/A   Scattered Clouds
8:55 AM 15.6 °F - 12.6 °F 88% 29.96 in 10.0 mi Calm Calm - N/A   Scattered Clouds
9:15 AM 15.8 °F 7.2 °F 12.6 °F 87% 29.98 in 10.0 mi NNW 5.8 mph - N/A   Scattered Clouds
9:35 AM 16.7 °F 9.6 °F 13.1 °F 86% 29.98 in 10.0 mi NNW 4.6 mph - N/A   Clear
9:55 AM 16.7 °F 8.3 °F 13.1 °F 86% 29.98 in 10.0 mi NNW 5.8 mph - N/A   Clear
10:15 AM 17.6 °F 8.2 °F 13.6 °F 84% 29.99 in 10.0 mi NNW 6.9 mph - N/A   Clear
10:35 AM 18.5 °F 10.4 °F 14.0 °F 83% 29.99 in 10.0 mi North 5.8 mph - N/A   Clear
10:55 AM 19.4 °F 12.8 °F 14.2 °F 80% 30.00 in 10.0 mi NNW 4.6 mph - N/A   Clear
11:15 AM 20.3 °F 13.8 °F 14.9 °F 80% 30.01 in 5.0 mi NNW 4.6 mph - N/A Snow Light Snow
11:35 AM 21.2 °F - 15.3 °F 78% 29.99 in 7.0 mi Calm Calm - N/A Snow Light Snow
11:55 AM 21.0 °F - 15.8 °F 80% 29.99 in 10.0 mi Calm Calm - N/A   Clear
12:15 PM 22.1 °F - 15.8 °F 77% 29.99 in 10.0 mi Calm Calm - N/A   Clear
12:35 PM 23.0 °F - 16.5 °F 76% 29.98 in 10.0 mi Calm Calm - N/A   Clear
12:55 PM 22.5 °F 12.4 °F 16.7 °F 79% 29.99 in 10.0 mi NNW 9.2 mph - N/A   Clear
1:15 PM 22.6 °F 12.6 °F 17.4 °F 80% 29.99 in 10.0 mi NW 9.2 mph - N/A   Scattered Clouds
1:35 PM 23.0 °F 13.1 °F 18.0 °F 81% 29.99 in 10.0 mi NW 9.2 mph - N/A   Mostly Cloudy
1:55 PM 23.7 °F 14.7 °F 18.7 °F 81% 29.99 in 10.0 mi NW 8.1 mph - N/A   Overcast
2:15 PM 25.2 °F 14.4 °F 19.2 °F 78% 30.00 in 10.0 mi NNW 11.5 mph - N/A   Overcast
2:35 PM 25.9 °F 16.0 °F 19.4 °F 76% 29.99 in 10.0 mi NNW 10.4 mph - N/A   Overcast
2:55 PM 26.1 °F 16.2 °F 19.2 °F 75% 30.00 in 10.0 mi NNW 10.4 mph - N/A   Scattered Clouds
3:15 PM 26.2 °F 17.1 °F 19.4 °F 75% 30.02 in 10.0 mi NW 9.2 mph - N/A   Scattered Clouds
3:35 PM 25.0 °F 13.1 °F 19.8 °F 81% 30.02 in 10.0 mi NNW 13.8 mph - N/A   Overcast
3:55 PM 24.8 °F 14.0 °F 19.4 °F 80% 30.03 in 10.0 mi NNW 11.5 mph - N/A   Overcast
4:15 PM 24.4 °F 13.5 °F 19.4 °F 81% 30.03 in 10.0 mi NNW 11.5 mph 18.4 mph N/A   Overcast
4:35 PM 24.1 °F 13.7 °F 19.4 °F 82% 30.04 in 10.0 mi NNW 10.4 mph - N/A   Overcast
4:55 PM 23.9 °F 12.3 °F 19.4 °F 83% 30.05 in 10.0 mi NNW 12.7 mph - N/A   Overcast
5:15 PM 23.7 °F 12.6 °F 19.0 °F 82% 30.07 in 10.0 mi NNW 11.5 mph - N/A   Overcast
5:35 PM 23.4 °F 12.8 °F 19.0 °F 84% 30.08 in 10.0 mi NNW 10.4 mph - N/A   Overcast
5:55 PM 22.6 °F 11.3 °F 18.9 °F 85% 30.10 in 10.0 mi NNW 11.5 mph - N/A   Overcast
6:15 PM 22.5 °F 11.7 °F 18.1 °F 83% 30.11 in 10.0 mi NNW 10.4 mph - N/A   Overcast
6:35 PM 21.2 °F 8.3 °F 16.5 °F 82% 30.12 in 10.0 mi North 13.8 mph 20.7 mph N/A   Overcast
6:55 PM 18.3 °F 7.3 °F 12.7 °F 79% 30.14 in 10.0 mi NNW 9.2 mph - N/A   Scattered Clouds
7:15 PM 16.7 °F - 12.2 °F 82% 30.16 in 10.0 mi Calm Calm - N/A   Clear
7:35 PM 16.2 °F 4.7 °F 12.2 °F 84% 30.16 in 10.0 mi NW 9.2 mph - N/A   Clear
7:55 PM 15.8 °F 5.1 °F 11.5 °F 83% 30.17 in 10.0 mi NW 8.1 mph - N/A   Clear
8:15 PM 15.4 °F 6.8 °F 10.9 °F 82% 30.18 in 10.0 mi NNW 5.8 mph - N/A   Clear
8:35 PM 14.9 °F 2.3 °F 10.2 °F 82% 30.19 in 10.0 mi NNW 10.4 mph - N/A   Clear
8:55 PM 14.4 °F 0.2 °F 9.5 °F 81% 30.21 in 10.0 mi NNW 12.7 mph - N/A   Clear
9:15 PM 14.0 °F -0.2 °F 8.6 °F 79% 30.22 in 10.0 mi NNW 12.7 mph - N/A   Clear
9:35 PM 13.6 °F -0.7 °F 8.1 °F 78% 30.21 in 10.0 mi NNW 12.7 mph - N/A   Clear
9:55 PM 12.9 °F -0.2 °F 6.8 °F 77% 30.22 in 10.0 mi NNW 10.4 mph - N/A   Clear
10:15 PM 12.9 °F -1.6 °F 6.6 °F 76% 30.22 in 10.0 mi NNW 12.7 mph - N/A   Clear
10:35 PM 12.6 °F -2.0 °F 5.9 °F 75% 30.23 in 10.0 mi NNW 12.7 mph - N/A   Clear
10:55 PM 11.8 °F -4.2 °F 5.0 °F 74% 30.23 in 10.0 mi NNW 15.0 mph - N/A   Clear
11:15 PM 11.7 °F -4.4 °F 4.5 °F 73% 30.23 in 10.0 mi NNW 15.0 mph - N/A   Clear
11:35 PM 11.3 °F -4.3 °F 4.6 °F 75% 30.25 in 10.0 mi NNW 13.8 mph - N/A   Clear
11:55 PM 11.3 °F -4.3 °F 4.5 °F 74% 30.27 in 10.0 mi NNW 13.8 mph 21.9 mph N/A   Clear